Location: Unspecified
(0.0000°N, 0.0000°E)
Time: 15:42:19
(UTC+01:00)

Envisat - Pass Details

Date: 31 October 2021
Orbit: 764 x 766 km, 98.2° (Epoch: 29 November)

Event Time Altitude Azimuth Distance (km) Brightness Sun altitude
Rises 06:09:26 0° 357° (N) 3,212 6.0 -8.3°
Reaches altitude 10° 06:11:51 10° 349° (N) 2,289 5.2 -7.7°
Maximum altitude 06:16:30 38° 282° (WNW) 1,159 3.5 -6.6°
Drops below altitude 10° 06:21:10 10° 215° (SW) 2,298 5.3 -5.4°
Sets 06:23:37 0° 207° (SSW) 3,226 6.1 -4.9°
